SL-16 R/B, 22285

Orbit data source: Space-Track

SL-16 R/B, 22285 is space debris in LEO originally from a launch on Fri, 25 Dec 1992 UTC launched from the Tyuratam Missile And Space Complex (TTMTR). Debris objects in space refer to the collection of defunct objects orbiting the Earth. Examples of debris include non-operational satellites, rocket bodies, and fragments generated from explosions, collisions, or faulty payload assembly.

Loading next visibility...
Identifier
22285, 1992-093B
Orbit
LEO
Country
Flag of CISCIS
Related business
Manufacturer
Yuzhnoe
Mission
Spacecraft
Bus & Motor
11S772, Unknown motor
Mass
9,000 kg wet, 9,000 kg dry
Launch date (UTC)
1992-12-25 (33 years ago)
Launch vehicle
Unknown
Launch site
Tyuratam Missile And Space Complex (TTMTR)
Object type
Payload
Rocket body
Debris
Shape & HBR
Unknown shape, 3.7 m
Radar Cross Section
Large (>1 m²)

Expand to show TLE details & history
Last TLE update: 14 hours ago

TLE from 14 hours ago
0 SL-16 R/B
1 22285U 92093B   26132.55434426 -.00000278  00000-0 -11773-3 0  9990
2 22285  71.0221 230.1935 0005824 230.5454 129.5154 14.15460007722195
Epoch: 2026-05-12T13:18Z
TLE epoch observation values (Epoch: 2026-05-12T13:18:15.344Z)
Latitude
-0.00002°
Longitude
160.30251°
Altitude
845.827 km
Speed
7.429 km/s
True Right ascension
15h 20m 46s
True Declination
0° 00' 00"
Sunlit
Object was in full shadow at epoch
Visualization orbit readout
Latitude
Unknown
Longitude
Unknown
Altitude
Unknown
Speed
Unknown
Apparent Right ascension
Unknown
Apparent Declination
Unknown
Sunlit
N/A
Visualization observer readout
Local Sidereal Time
11:29:20
Azimuth
Unknown
Elevation
Unknown
Doppler factor
Unknown
Orbital elements
Apogee altitude
842.873 km
Perigee altitude
834.467 km
Semi-major axis
7,216.807 km
Eccentricity
0.00058
Inclination
71.0221°
RAAN
230.1935°
Arg. of periapsis
230.5454°
True anomaly
129.56686°
Mean anomaly
129.5154°
Eccentric anomaly
129.54113°
Mean motion
3.54018 °/min
Orbital period
101.69 mins
BSTAR
-0.00011773
Loading maneuver chart data...
Computing Atmospheric mass density...
Loading historical data...
Loading historical data...
Loading historical data...
Loading historical data...
Loading historical data...
Loading historical data...
Loading historical data...

Documentation

Showing up to 5 results
|